TimeEDT,TemperatureF,Dew PointF,Humidity,Sea Level PressureIn,VisibilityMPH,Wind Direction,Wind SpeedMPH,Gust SpeedMPH,PrecipitationIn,Events,Conditions,WindDirDegrees,DateUTC
12:52 AM,69.1,64.9,87,30.07,10.0,Calm,Calm,-,N/A,,Clear,0,2013-08-12 04:52:00
1:52 AM,66.0,64.9,96,30.07,10.0,Calm,Calm,-,N/A,,Clear,0,2013-08-12 05:52:00
2:52 AM,66.9,64.9,93,30.06,10.0,Calm,Calm,-,N/A,,Partly Cloudy,0,2013-08-12 06:52:00
3:52 AM,64.0,64.0,100,30.06,6.0,Calm,Calm,-,N/A,,Partly Cloudy,0,2013-08-12 07:52:00
4:52 AM,66.0,64.9,96,30.06,6.0,Calm,Calm,-,N/A,,Scattered Clouds,0,2013-08-12 08:52:00
5:52 AM,64.0,63.0,96,30.05,6.0,Calm,Calm,-,N/A,,Scattered Clouds,0,2013-08-12 09:52:00
6:52 AM,64.9,64.0,97,30.05,5.0,Calm,Calm,-,N/A,,Scattered Clouds,0,2013-08-12 10:52:00
7:52 AM,68.0,66.0,93,30.04,7.0,Calm,Calm,-,N/A,,Scattered Clouds,0,2013-08-12 11:52:00
8:52 AM,72.0,68.0,87,30.05,8.0,Calm,Calm,-,N/A,,Mostly Cloudy,0,2013-08-12 12:52:00
9:52 AM,77.0,68.0,74,30.04,10.0,South,4.6,-,N/A,,Mostly Cloudy,190,2013-08-12 13:52:00
10:52 AM,79.0,66.0,64,30.03,10.0,South,5.8,-,N/A,,Mostly Cloudy,180,2013-08-12 14:52:00
11:52 AM,81.0,66.9,62,30.04,10.0,SSW,8.1,-,N/A,,Mostly Cloudy,200,2013-08-12 15:52:00
12:52 PM,81.0,66.9,62,30.01,10.0,SW,3.5,-,N/A,,Mostly Cloudy,230,2013-08-12 16:52:00
1:52 PM,81.0,68.0,65,30.00,10.0,SSW,5.8,-,N/A,,Mostly Cloudy,210,2013-08-12 17:52:00
2:52 PM,80.1,69.1,69,29.97,10.0,SSW,6.9,-,N/A,,Overcast,210,2013-08-12 18:52:00
3:52 PM,80.1,70.0,71,29.95,9.0,SW,6.9,-,N/A,,Overcast,220,2013-08-12 19:52:00
4:52 PM,82.0,72.0,71,29.94,8.0,SSW,9.2,-,N/A,,Mostly Cloudy,200,2013-08-12 20:52:00
5:52 PM,79.0,72.0,79,29.92,8.0,South,8.1,-,N/A,,Overcast,190,2013-08-12 21:52:00
6:52 PM,78.1,72.0,81,29.91,7.0,SSW,5.8,-,N/A,,Overcast,210,2013-08-12 22:52:00
7:52 PM,77.0,72.0,84,29.90,9.0,SSW,5.8,-,N/A,,Overcast,200,2013-08-12 23:52:00
8:52 PM,75.0,73.0,94,29.89,10.0,SSW,5.8,-,N/A,,Overcast,200,2013-08-13 00:52:00
9:52 PM,73.9,73.0,97,29.88,9.0,SSW,3.5,-,0.00,,Overcast,210,2013-08-13 01:52:00
10:26 PM,73.4,73.4,100,29.91,8.0,SSW,5.8,-,N/A,,Overcast,210,2013-08-13 02:26:00
10:52 PM,73.9,73.0,97,29.89,7.0,SW,4.6,-,N/A,,Overcast,220,2013-08-13 02:52:00
11:33 PM,73.4,73.4,100,29.92,7.0,SW,4.6,-,N/A,,Overcast,220,2013-08-13 03:33:00
11:52 PM,73.9,73.0,97,29.89,7.0,WSW,4.6,-,N/A,,Overcast,250,2013-08-13 03:52:00